Location: West Cummington
(42.4920°N, 72.9680°W)
Time: 10:53:50
(UTC-05:00)

Cosmos 1703 Rocket - Visible Passes

Search period start: 20 February 2017 00:00
Search period end: 02 March 2017 00:00
Orbit: 605 x 634 km, 82.5° (Epoch: 19 February)

Date Brightness Start Highest point End Pass type
(mag) Time Alt. Az. Time Alt. Az. Time Alt. Az.
20 Feb 6.7 03:54:43 10° ESE 03:56:50 13° E 03:58:56 10° NE visible
20 Feb 3.6 05:30:00 10° SSW 05:34:12 51° W 05:38:28 10° N visible
21 Feb 5.8 04:10:40 10° SE 04:14:10 25° E 04:17:43 10° NE visible
21 Feb 4.4 05:48:13 10° SW 05:51:56 28° WNW 05:55:42 10° NNW visible
22 Feb 4.5 04:27:29 10° SSE 04:31:37 46° E 04:35:48 10° NNE visible
22 Feb 5.1 06:07:07 10° WSW 06:09:47 16° WNW 06:12:28 10° NNW visible
23 Feb 3.4 04:44:50 10° S 04:49:09 89° E 04:53:33 10° N visible
24 Feb 6.4 03:27:00 10° ESE 03:29:23 15° E 03:31:47 10° NE visible
24 Feb 3.7 05:04:08 21° SW 05:06:48 47° WNW 05:11:02 10° N visible
25 Feb 5.5 03:45:40 24° ESE 03:46:44 27° E 03:50:23 10° NNE visible
25 Feb 4.5 05:22:54 20° WSW 05:24:33 26° WNW 05:28:14 10° NNW visible
26 Feb 4.3 04:04:06 50° E 04:04:12 50° E 04:08:26 10° NNE visible
26 Feb 5.2 05:41:19 14° W 05:42:25 15° WNW 05:44:53 10° NW visible
27 Feb 3.6 04:22:19 67° N 04:22:19 67° N 04:26:09 10° N visible
28 Feb 6.5 03:03:11 14° ENE 03:03:11 14° ENE 03:04:34 10° NE visible
28 Feb 4.2 04:40:23 37° NW 04:40:23 37° NW 04:43:37 10° N visible
01 Mar 5.9 03:21:10 21° NE 03:21:10 21° NE 03:23:05 10° NNE visible
01 Mar 5.0 04:58:21 21° NW 04:58:21 21° NW 05:00:45 10° NNW visible
